owner,sensor,date,latitude,longitude,vertical_datum,wind_speed,wind_to_direction,wind_speed_of_gust,qcFlag 
DISL,ioos:station:DISL:PPTA:1,2013-12-01T00:00:00Z,30.2791,-87.5561,0.0,0.32,34.72,-9999.0,'1111122,1111122,1111122' 
DISL,ioos:station:DISL:PPTA:1,2013-12-01T00:30:00Z,30.2791,-87.5561,0.0,0.98,305.0,-9999.0,'1111122,1111122,1111122' 
DISL,ioos:station:DISL:PPTA:1,2013-12-01T01:00:00Z,30.2791,-87.5561,0.0,1.43,279.6,-9999.0,'1111122,1111122,1111122' 
DISL,ioos:station:DISL:PPTA:1,2013-12-01T01:30:00Z,30.2791,-87.5561,0.0,1.39,296.6,-9999.0,'1111122,1111122,1111122' 
DISL,ioos:station:DISL:PPTA:1,2013-12-01T02:00:00Z,30.2791,-87.5561,0.0,0.7,326.3,-9999.0,'1111122,1111122,1111122' 
DISL,ioos:station:DISL:PPTA:1,2013-12-01T02:30:00Z,30.2791,-87.5561,0.0,0.6,311.4,-9999.0,'1111122,1111122,1111122' 
DISL,ioos:station:DISL:PPTA:1,2013-12-01T03:00:00Z,30.2791,-87.5561,0.0,0.3,322.3,-9999.0,'1111122,1111122,1111122' 
DISL,ioos:station:DISL:PPTA:1,2013-12-01T03:30:00Z,30.2791,-87.5561,0.0,0.5,1.724,-9999.0,'1111122,1111122,1111122' 
DISL,ioos:station:DISL:PPTA:1,2013-12-01T04:00:00Z,30.2791,-87.5561,0.0,0.67,340.4,-9999.0,'1111122,1111122,1111122' 
DISL,ioos:station:DISL:PPTA:1,2013-12-01T04:30:00Z,30.2791,-87.5561,0.0,0.73,332.0,-9999.0,'1111122,1111122,1111122' 
DISL,ioos:station:DISL:PPTA:1,2013-12-01T05:00:00Z,30.2791,-87.5561,0.0,0.61,353.4,-9999.0,'1111122,1111122,1111122' 
DISL,ioos:station:DISL:PPTA:1,2013-12-01T05:30:00Z,30.2791,-87.5561,0.0,0.82,334.7,-9999.0,'1111122,1111122,1111122' 
DISL,ioos:station:DISL:PPTA:1,2013-12-01T06:00:00Z,30.2791,-87.5561,0.0,1.35,14.06,-9999.0,'1111122,1111122,1111122' 
DISL,ioos:station:DISL:PPTA:1,2013-12-01T06:30:00Z,30.2791,-87.5561,0.0,1.4,352.7,-9999.0,'1111122,1111122,1111122' 
DISL,ioos:station:DISL:PPTA:1,2013-12-01T07:00:00Z,30.2791,-87.5561,0.0,1.22,11.93,-9999.0,'1111122,1111122,1111122' 
DISL,ioos:station:DISL:PPTA:1,2013-12-01T07:30:00Z,30.2791,-87.5561,0.0,1.72,18.2,-9999.0,'1111122,1111122,1111122' 
DISL,ioos:station:DISL:PPTA:1,2013-12-01T08:00:00Z,30.2791,-87.5561,0.0,2.12,33.19,-9999.0,'1111122,1111122,1111122' 
DISL,ioos:station:DISL:PPTA:1,2013-12-01T08:30:00Z,30.2791,-87.5561,0.0,1.89,32.51,-9999.0,'1111122,1111122,1111122' 
DISL,ioos:station:DISL:PPTA:1,2013-12-01T09:00:00Z,30.2791,-87.5561,0.0,1.84,33.22,-9999.0,'1111122,1111122,1111122' 
DISL,ioos:station:DISL:PPTA:1,2013-12-01T09:30:00Z,30.2791,-87.5561,0.0,1.56,3.491,-9999.0,'1111122,1111122,1111122' 
DISL,ioos:station:DISL:PPTA:1,2013-12-01T10:00:00Z,30.2791,-87.5561,0.0,1.72,5.437,-9999.0,'1111122,1111122,1111122' 
DISL,ioos:station:DISL:PPTA:1,2013-12-01T10:30:00Z,30.2791,-87.5561,0.0,1.9,35.02,-9999.0,'1111122,1111122,1111122' 
DISL,ioos:station:DISL:PPTA:1,2013-12-01T11:00:00Z,30.2791,-87.5561,0.0,2.16,22.65,-9999.0,'1111122,1111122,1111122' 
DISL,ioos:station:DISL:PPTA:1,2013-12-01T11:30:00Z,30.2791,-87.5561,0.0,1.98,39.24,-9999.0,'1111122,1111122,1111122' 
DISL,ioos:station:DISL:PPTA:1,2013-12-01T12:00:00Z,30.2791,-87.5561,0.0,1.78,356.6,-9999.0,'1111122,1111122,1111122' 
DISL,ioos:station:DISL:PPTA:1,2013-12-01T12:30:00Z,30.2791,-87.5561,0.0,2.3,13.68,-9999.0,'1111122,1111122,1111122' 
DISL,ioos:station:DISL:PPTA:1,2013-12-01T13:00:00Z,30.2791,-87.5561,0.0,1.71,39.28,-9999.0,'1111122,1111122,1111122' 
DISL,ioos:station:DISL:PPTA:1,2013-12-01T13:30:00Z,30.2791,-87.5561,0.0,1.69,19.19,-9999.0,'1111122,1111122,1111122' 
DISL,ioos:station:DISL:PPTA:1,2013-12-01T14:00:00Z,30.2791,-87.5561,0.0,1.78,14.25,-9999.0,'1111122,1111122,1111122' 
DISL,ioos:station:DISL:PPTA:1,2013-12-01T14:30:00Z,30.2791,-87.5561,0.0,1.52,14.92,-9999.0,'1111122,1111122,1111122' 
DISL,ioos:station:DISL:PPTA:1,2013-12-01T15:00:00Z,30.2791,-87.5561,0.0,1.52,348.7,-9999.0,'1111122,1111122,1111122' 
DISL,ioos:station:DISL:PPTA:1,2013-12-01T15:30:00Z,30.2791,-87.5561,0.0,0.89,305.8,-9999.0,'1111122,1111122,1111122' 
DISL,ioos:station:DISL:PPTA:1,2013-12-01T16:00:00Z,30.2791,-87.5561,0.0,0.66,13.01,-9999.0,'1111122,1111122,1111122' 
DISL,ioos:station:DISL:PPTA:1,2013-12-01T16:30:00Z,30.2791,-87.5561,0.0,0.68,83.1,-9999.0,'1111122,1111122,1111122' 
DISL,ioos:station:DISL:PPTA:1,2013-12-01T17:00:00Z,30.2791,-87.5561,0.0,2.07,169.9,-9999.0,'1111122,1111122,1111122' 
DISL,ioos:station:DISL:PPTA:1,2013-12-01T17:30:00Z,30.2791,-87.5561,0.0,1.89,145.8,-9999.0,'1111122,1111122,1111122' 
DISL,ioos:station:DISL:PPTA:1,2013-12-01T18:00:00Z,30.2791,-87.5561,0.0,1.88,156.1,-9999.0,'1111122,1111122,1111122' 
DISL,ioos:station:DISL:PPTA:1,2013-12-01T18:30:00Z,30.2791,-87.5561,0.0,2.25,153.1,-9999.0,'1111122,1111122,1111122' 
DISL,ioos:station:DISL:PPTA:1,2013-12-01T19:00:00Z,30.2791,-87.5561,0.0,2.45,154.6,-9999.0,'1111122,1111122,1111122' 
DISL,ioos:station:DISL:PPTA:1,2013-12-01T19:30:00Z,30.2791,-87.5561,0.0,2.28,158.3,-9999.0,'1111122,1111122,1111122' 
DISL,ioos:station:DISL:PPTA:1,2013-12-01T20:00:00Z,30.2791,-87.5561,0.0,2.32,174.4,-9999.0,'1111122,1111122,1111122' 
DISL,ioos:station:DISL:PPTA:1,2013-12-01T20:30:00Z,30.2791,-87.5561,0.0,2.47,177.6,-9999.0,'1111122,1111122,1111122' 
DISL,ioos:station:DISL:PPTA:1,2013-12-01T21:00:00Z,30.2791,-87.5561,0.0,2.19,152.4,-9999.0,'1111122,1111122,1111122' 
DISL,ioos:station:DISL:PPTA:1,2013-12-01T21:30:00Z,30.2791,-87.5561,0.0,1.09,136.6,-9999.0,'1111122,1111122,1111122' 
DISL,ioos:station:DISL:PPTA:1,2013-12-01T22:00:00Z,30.2791,-87.5561,0.0,1.19,132.2,-9999.0,'1111122,1111122,1111122' 
DISL,ioos:station:DISL:PPTA:1,2013-12-01T22:30:00Z,30.2791,-87.5561,0.0,1.17,122.7,-9999.0,'1111122,1111122,1111122' 
DISL,ioos:station:DISL:PPTA:1,2013-12-01T23:00:00Z,30.2791,-87.5561,0.0,1.37,126.4,-9999.0,'1111122,1111122,1111122' 
DISL,ioos:station:DISL:PPTA:1,2013-12-01T23:30:00Z,30.2791,-87.5561,0.0,0.42,301.3,-9999.0,'1111122,1111122,1111122' 
DISL,ioos:station:DISL:PPTA:1,2013-12-02T00:00:00Z,30.2791,-87.5561,0.0,0.37,329.3,-9999.0,'1111122,1111122,1111122' 
DISL,ioos:station:DISL:PPTA:1,2013-12-02T00:30:00Z,30.2791,-87.5561,0.0,0.84,305.0,-9999.0,'1111122,1111122,1111122' 
DISL,ioos:station:DISL:PPTA:1,2013-12-02T01:00:00Z,30.2791,-87.5561,0.0,0.43,353.3,-9999.0,'1111122,1111122,1111122' 
DISL,ioos:station:DISL:PPTA:1,2013-12-02T01:30:00Z,30.2791,-87.5561,0.0,0.1,33.19,-9999.0,'1111122,1111122,1111122' 
DISL,ioos:station:DISL:PPTA:1,2013-12-02T02:00:00Z,30.2791,-87.5561,0.0,0.49,51.02,-9999.0,'1111122,1111122,1111122' 
DISL,ioos:station:DISL:PPTA:1,2013-12-02T02:30:00Z,30.2791,-87.5561,0.0,0.21,1.466,-9999.0,'1111122,1111122,1111122' 
DISL,ioos:station:DISL:PPTA:1,2013-12-02T03:00:00Z,30.2791,-87.5561,0.0,0.2,342.7,-9999.0,'1111122,1111122,1111122' 
DISL,ioos:station:DISL:PPTA:1,2013-12-02T03:30:00Z,30.2791,-87.5561,0.0,0.0,0.0,-9999.0,'1114422,1114422,1111122' 
DISL,ioos:station:DISL:PPTA:1,2013-12-02T04:00:00Z,30.2791,-87.5561,0.0,0.92,236.8,-9999.0,'1111122,1111122,1111122' 
DISL,ioos:station:DISL:PPTA:1,2013-12-02T04:30:00Z,30.2791,-87.5561,0.0,0.94,286.9,-9999.0,'1111122,1111122,1111122' 
DISL,ioos:station:DISL:PPTA:1,2013-12-02T05:00:00Z,30.2791,-87.5561,0.0,2.05,254.0,-9999.0,'1111122,1111122,1111122' 
DISL,ioos:station:DISL:PPTA:1,2013-12-02T05:30:00Z,30.2791,-87.5561,0.0,1.57,262.3,-9999.0,'1111122,1111122,1111122' 
DISL,ioos:station:DISL:PPTA:1,2013-12-02T06:00:00Z,30.2791,-87.5561,0.0,0.4,329.3,-9999.0,'1111122,1111122,1111122' 
DISL,ioos:station:DISL:PPTA:1,2013-12-02T06:30:00Z,30.2791,-87.5561,0.0,0.11,12.38,-9999.0,'1111122,1111122,1111122' 
DISL,ioos:station:DISL:PPTA:1,2013-12-02T07:00:00Z,30.2791,-87.5561,0.0,0.61,319.5,-9999.0,'1111122,1111122,1111122' 
DISL,ioos:station:DISL:PPTA:1,2013-12-02T07:30:00Z,30.2791,-87.5561,0.0,0.29,15.31,-9999.0,'1111122,1111122,1111122' 
DISL,ioos:station:DISL:PPTA:1,2013-12-02T08:00:00Z,30.2791,-87.5561,0.0,0.76,39.94,-9999.0,'1111122,1111122,1111122' 
DISL,ioos:station:DISL:PPTA:1,2013-12-02T08:30:00Z,30.2791,-87.5561,0.0,0.62,66.4,-9999.0,'1111122,1111122,1111122' 
DISL,ioos:station:DISL:PPTA:1,2013-12-02T09:00:00Z,30.2791,-87.5561,0.0,0.33,84.4,-9999.0,'1111122,1111122,1111122' 
DISL,ioos:station:DISL:PPTA:1,2013-12-02T09:30:00Z,30.2791,-87.5561,0.0,0.97,13.44,-9999.0,'1111122,1111122,1111122' 
DISL,ioos:station:DISL:PPTA:1,2013-12-02T10:00:00Z,30.2791,-87.5561,0.0,1.25,40.5,-9999.0,'1111122,1111122,1111122' 
DISL,ioos:station:DISL:PPTA:1,2013-12-02T10:30:00Z,30.2791,-87.5561,0.0,1.23,37.93,-9999.0,'1111122,1111122,1111122' 
DISL,ioos:station:DISL:PPTA:1,2013-12-02T11:00:00Z,30.2791,-87.5561,0.0,1.46,77.3,-9999.0,'1111122,1111122,1111122' 
DISL,ioos:station:DISL:PPTA:1,2013-12-02T11:30:00Z,30.2791,-87.5561,0.0,0.95,97.6,-9999.0,'1111122,1111122,1111122' 
DISL,ioos:station:DISL:PPTA:1,2013-12-02T12:00:00Z,30.2791,-87.5561,0.0,0.1,326.8,-9999.0,'1111122,1111122,1111122' 
DISL,ioos:station:DISL:PPTA:1,2013-12-02T12:30:00Z,30.2791,-87.5561,0.0,1.19,137.5,-9999.0,'1111122,1111122,1111122' 
DISL,ioos:station:DISL:PPTA:1,2013-12-02T13:00:00Z,30.2791,-87.5561,0.0,0.61,20.29,-9999.0,'1111122,1111122,1111122' 
DISL,ioos:station:DISL:PPTA:1,2013-12-02T13:30:00Z,30.2791,-87.5561,0.0,0.35,337.7,-9999.0,'1111122,1111122,1111122' 
DISL,ioos:station:DISL:PPTA:1,2013-12-02T14:00:00Z,30.2791,-87.5561,0.0,0.63,330.6,-9999.0,'1111122,1111122,1111122' 
DISL,ioos:station:DISL:PPTA:1,2013-12-02T14:30:00Z,30.2791,-87.5561,0.0,0.36,40.47,-9999.0,'1111122,1111122,1111122' 
DISL,ioos:station:DISL:PPTA:1,2013-12-02T15:00:00Z,30.2791,-87.5561,0.0,0.03,35.65,-9999.0,'1111122,1111122,1111122' 
DISL,ioos:station:DISL:PPTA:1,2013-12-02T15:30:00Z,30.2791,-87.5561,0.0,1.36,88.6,-9999.0,'1111122,1111122,1111122' 
DISL,ioos:station:DISL:PPTA:1,2013-12-02T16:00:00Z,30.2791,-87.5561,0.0,1.1,94.6,-9999.0,'1111122,1111122,1111122' 
DISL,ioos:station:DISL:PPTA:1,2013-12-02T16:30:00Z,30.2791,-87.5561,0.0,1.89,155.1,-9999.0,'1111122,1111122,1111122' 
DISL,ioos:station:DISL:PPTA:1,2013-12-02T17:00:00Z,30.2791,-87.5561,0.0,1.71,156.1,-9999.0,'1111122,1111122,1111122' 
DISL,ioos:station:DISL:PPTA:1,2013-12-02T17:30:00Z,30.2791,-87.5561,0.0,1.72,174.1,-9999.0,'1111122,1111122,1111122' 
DISL,ioos:station:DISL:PPTA:1,2013-12-02T18:00:00Z,30.2791,-87.5561,0.0,2.63,176.9,-9999.0,'1111122,1111122,1111122' 
DISL,ioos:station:DISL:PPTA:1,2013-12-02T18:30:00Z,30.2791,-87.5561,0.0,3.84,184.9,-9999.0,'1111122,1111122,1111122' 
DISL,ioos:station:DISL:PPTA:1,2013-12-02T19:00:00Z,30.2791,-87.5561,0.0,2.92,187.7,-9999.0,'1111122,1111122,1111122' 
DISL,ioos:station:DISL:PPTA:1,2013-12-02T19:30:00Z,30.2791,-87.5561,0.0,1.04,208.9,-9999.0,'1111122,1111122,1111122' 
DISL,ioos:station:DISL:PPTA:1,2013-12-02T20:00:00Z,30.2791,-87.5561,0.0,1.62,200.8,-9999.0,'1111122,1111122,1111122' 
DISL,ioos:station:DISL:PPTA:1,2013-12-02T20:30:00Z,30.2791,-87.5561,0.0,1.59,194.3,-9999.0,'1111122,1111122,1111122' 
DISL,ioos:station:DISL:PPTA:1,2013-12-02T21:00:00Z,30.2791,-87.5561,0.0,2.27,191.1,-9999.0,'1111122,1111122,1111122' 
DISL,ioos:station:DISL:PPTA:1,2013-12-02T21:30:00Z,30.2791,-87.5561,0.0,1.31,193.5,-9999.0,'1111122,1111122,1111122' 
DISL,ioos:station:DISL:PPTA:1,2013-12-02T22:00:00Z,30.2791,-87.5561,0.0,1.27,197.4,-9999.0,'1111122,1111122,1111122' 
DISL,ioos:station:DISL:PPTA:1,2013-12-02T22:30:00Z,30.2791,-87.5561,0.0,1.92,174.4,-9999.0,'1111122,1111122,1111122' 
DISL,ioos:station:DISL:PPTA:1,2013-12-02T23:00:00Z,30.2791,-87.5561,0.0,1.94,185.5,-9999.0,'1111122,1111122,1111122' 
DISL,ioos:station:DISL:PPTA:1,2013-12-02T23:30:00Z,30.2791,-87.5561,0.0,1.26,190.1,-9999.0,'1111122,1111122,1111122' 
DISL,ioos:station:DISL:PPTA:1,2013-12-03T00:00:00Z,30.2791,-87.5561,0.0,2.01,178.3,-9999.0,'1111122,1111122,1111122' 
DISL,ioos:station:DISL:PPTA:1,2013-12-03T00:30:00Z,30.2791,-87.5561,0.0,1.78,191.5,-9999.0,'1111122,1111122,1111122' 
DISL,ioos:station:DISL:PPTA:1,2013-12-03T01:00:00Z,30.2791,-87.5561,0.0,1.33,192.0,-9999.0,'1111122,1111122,1111122' 
DISL,ioos:station:DISL:PPTA:1,2013-12-03T01:30:00Z,30.2791,-87.5561,0.0,1.32,186.0,-9999.0,'1111122,1111122,1111122' 
DISL,ioos:station:DISL:PPTA:1,2013-12-03T02:00:00Z,30.2791,-87.5561,0.0,1.84,187.2,-9999.0,'1111122,1111122,1111122' 
DISL,ioos:station:DISL:PPTA:1,2013-12-03T02:30:00Z,30.2791,-87.5561,0.0,2.12,185.3,-9999.0,'1111122,1111122,1111122' 
DISL,ioos:station:DISL:PPTA:1,2013-12-03T03:00:00Z,30.2791,-87.5561,0.0,1.19,195.2,-9999.0,'1111122,1111122,1111122' 
DISL,ioos:station:DISL:PPTA:1,2013-12-03T03:30:00Z,30.2791,-87.5561,0.0,1.21,200.0,-9999.0,'1111122,1111122,1111122' 
DISL,ioos:station:DISL:PPTA:1,2013-12-03T04:00:00Z,30.2791,-87.5561,0.0,1.61,194.5,-9999.0,'1111122,1111122,1111122' 
DISL,ioos:station:DISL:PPTA:1,2013-12-03T04:30:00Z,30.2791,-87.5561,0.0,1.77,192.6,-9999.0,'1111122,1111122,1111122' 
DISL,ioos:station:DISL:PPTA:1,2013-12-03T05:00:00Z,30.2791,-87.5561,0.0,1.84,187.1,-9999.0,'1111122,1111122,1111122' 
DISL,ioos:station:DISL:PPTA:1,2013-12-03T05:30:00Z,30.2791,-87.5561,0.0,1.38,195.9,-9999.0,'1111122,1111122,1111122' 
DISL,ioos:station:DISL:PPTA:1,2013-12-03T06:00:00Z,30.2791,-87.5561,0.0,1.11,188.2,-9999.0,'1111122,1111122,1111122' 
DISL,ioos:station:DISL:PPTA:1,2013-12-03T06:30:00Z,30.2791,-87.5561,0.0,1.95,184.5,-9999.0,'1111122,1111122,1111122' 
DISL,ioos:station:DISL:PPTA:1,2013-12-03T07:00:00Z,30.2791,-87.5561,0.0,1.29,190.6,-9999.0,'1111122,1111122,1111122' 
DISL,ioos:station:DISL:PPTA:1,2013-12-03T07:30:00Z,30.2791,-87.5561,0.0,0.87,202.2,-9999.0,'1111122,1111122,1111122' 
DISL,ioos:station:DISL:PPTA:1,2013-12-03T08:00:00Z,30.2791,-87.5561,0.0,1.1,194.6,-9999.0,'1111122,1111122,1111122' 
DISL,ioos:station:DISL:PPTA:1,2013-12-03T08:30:00Z,30.2791,-87.5561,0.0,1.95,191.8,-9999.0,'1111122,1111122,1111122' 
DISL,ioos:station:DISL:PPTA:1,2013-12-03T09:00:00Z,30.2791,-87.5561,0.0,0.9,213.7,-9999.0,'1111122,1111122,1111122' 
DISL,ioos:station:DISL:PPTA:1,2013-12-03T09:30:00Z,30.2791,-87.5561,0.0,0.67,228.5,-9999.0,'1111122,1111122,1111122' 
DISL,ioos:station:DISL:PPTA:1,2013-12-03T10:00:00Z,30.2791,-87.5561,0.0,0.71,232.1,-9999.0,'1111122,1111122,1111122' 
DISL,ioos:station:DISL:PPTA:1,2013-12-03T10:30:00Z,30.2791,-87.5561,0.0,1.28,200.2,-9999.0,'1111122,1111122,1111122' 
DISL,ioos:station:DISL:PPTA:1,2013-12-03T11:00:00Z,30.2791,-87.5561,0.0,1.87,185.1,-9999.0,'1111122,1111122,1111122' 
DISL,ioos:station:DISL:PPTA:1,2013-12-03T11:30:00Z,30.2791,-87.5561,0.0,1.72,196.4,-9999.0,'1111122,1111122,1111122' 
DISL,ioos:station:DISL:PPTA:1,2013-12-03T12:00:00Z,30.2791,-87.5561,0.0,1.38,189.7,-9999.0,'1111122,1111122,1111122' 
DISL,ioos:station:DISL:PPTA:1,2013-12-03T12:30:00Z,30.2791,-87.5561,0.0,0.7,217.7,-9999.0,'1111122,1111122,1111122' 
DISL,ioos:station:DISL:PPTA:1,2013-12-03T13:00:00Z,30.2791,-87.5561,0.0,0.68,213.4,-9999.0,'1111122,1111122,1111122' 
DISL,ioos:station:DISL:PPTA:1,2013-12-03T13:30:00Z,30.2791,-87.5561,0.0,0.67,214.7,-9999.0,'1111122,1111122,1111122' 
DISL,ioos:station:DISL:PPTA:1,2013-12-03T14:00:00Z,30.2791,-87.5561,0.0,0.99,188.7,-9999.0,'1111122,1111122,1111122' 
DISL,ioos:station:DISL:PPTA:1,2013-12-03T14:30:00Z,30.2791,-87.5561,0.0,1.91,181.1,-9999.0,'1111122,1111122,1111122' 
DISL,ioos:station:DISL:PPTA:1,2013-12-03T15:00:00Z,30.2791,-87.5561,0.0,1.76,184.4,-9999.0,'1111122,1111122,1111122' 
DISL,ioos:station:DISL:PPTA:1,2013-12-03T15:30:00Z,30.2791,-87.5561,0.0,1.84,187.4,-9999.0,'1111122,1111122,1111122' 
DISL,ioos:station:DISL:PPTA:1,2013-12-03T16:00:00Z,30.2791,-87.5561,0.0,1.95,186.6,-9999.0,'1111122,1111122,1111122' 
DISL,ioos:station:DISL:PPTA:1,2013-12-03T16:30:00Z,30.2791,-87.5561,0.0,1.78,189.2,-9999.0,'1111122,1111122,1111122' 
DISL,ioos:station:DISL:PPTA:1,2013-12-03T17:00:00Z,30.2791,-87.5561,0.0,2.39,186.5,-9999.0,'1111122,1111122,1111122' 
DISL,ioos:station:DISL:PPTA:1,2013-12-03T17:30:00Z,30.2791,-87.5561,0.0,1.97,183.3,-9999.0,'1111122,1111122,1111122' 
DISL,ioos:station:DISL:PPTA:1,2013-12-03T18:00:00Z,30.2791,-87.5561,0.0,2.31,183.9,-9999.0,'1111122,1111122,1111122' 
DISL,ioos:station:DISL:PPTA:1,2013-12-03T18:30:00Z,30.2791,-87.5561,0.0,1.62,198.7,-9999.0,'1111122,1111122,1111122' 
DISL,ioos:station:DISL:PPTA:1,2013-12-03T19:00:00Z,30.2791,-87.5561,0.0,2.58,184.5,-9999.0,'1111122,1111122,1111122' 
DISL,ioos:station:DISL:PPTA:1,2013-12-03T19:30:00Z,30.2791,-87.5561,0.0,2.2,186.6,-9999.0,'1111122,1111122,1111122' 
DISL,ioos:station:DISL:PPTA:1,2013-12-03T20:00:00Z,30.2791,-87.5561,0.0,1.29,178.4,-9999.0,'1111122,1111122,1111122' 
DISL,ioos:station:DISL:PPTA:1,2013-12-03T20:30:00Z,30.2791,-87.5561,0.0,0.69,158.8,-9999.0,'1111122,1111122,1111122' 
DISL,ioos:station:DISL:PPTA:1,2013-12-03T21:00:00Z,30.2791,-87.5561,0.0,0.92,157.2,-9999.0,'1111122,1111122,1111122' 
DISL,ioos:station:DISL:PPTA:1,2013-12-03T21:30:00Z,30.2791,-87.5561,0.0,0.64,175.6,-9999.0,'1111122,1111122,1111122' 
DISL,ioos:station:DISL:PPTA:1,2013-12-03T22:00:00Z,30.2791,-87.5561,0.0,0.77,184.7,-9999.0,'1111122,1111122,1111122' 
DISL,ioos:station:DISL:PPTA:1,2013-12-03T22:30:00Z,30.2791,-87.5561,0.0,0.87,199.0,-9999.0,'1111122,1111122,1111122' 
DISL,ioos:station:DISL:PPTA:1,2013-12-03T23:00:00Z,30.2791,-87.5561,0.0,0.66,219.7,-9999.0,'1111122,1111122,1111122' 
DISL,ioos:station:DISL:PPTA:1,2013-12-03T23:30:00Z,30.2791,-87.5561,0.0,0.48,194.3,-9999.0,'1111122,1111122,1111122' 
DISL,ioos:station:DISL:PPTA:1,2013-12-04T00:00:00Z,30.2791,-87.5561,0.0,0.8,204.7,-9999.0,'1111122,1111122,1111122' 
DISL,ioos:station:DISL:PPTA:1,2013-12-04T00:30:00Z,30.2791,-87.5561,0.0,1.38,187.7,-9999.0,'1111122,1111122,1111122' 
DISL,ioos:station:DISL:PPTA:1,2013-12-04T01:00:00Z,30.2791,-87.5561,0.0,1.21,186.4,-9999.0,'1111122,1111122,1111122' 
DISL,ioos:station:DISL:PPTA:1,2013-12-04T01:30:00Z,30.2791,-87.5561,0.0,1.04,189.1,-9999.0,'1111122,1111122,1111122' 
DISL,ioos:station:DISL:PPTA:1,2013-12-04T02:00:00Z,30.2791,-87.5561,0.0,0.24,195.8,-9999.0,'1111122,1111122,1111122' 
DISL,ioos:station:DISL:PPTA:1,2013-12-04T02:30:00Z,30.2791,-87.5561,0.0,1.11,193.1,-9999.0,'1111122,1111122,1111122' 
DISL,ioos:station:DISL:PPTA:1,2013-12-04T03:00:00Z,30.2791,-87.5561,0.0,2.45,191.4,-9999.0,'1111122,1111122,1111122' 
DISL,ioos:station:DISL:PPTA:1,2013-12-04T03:30:00Z,30.2791,-87.5561,0.0,2.99,189.3,-9999.0,'1111122,1111122,1111122' 
DISL,ioos:station:DISL:PPTA:1,2013-12-04T04:00:00Z,30.2791,-87.5561,0.0,2.08,194.9,-9999.0,'1111122,1111122,1111122' 
DISL,ioos:station:DISL:PPTA:1,2013-12-04T04:30:00Z,30.2791,-87.5561,0.0,1.38,197.6,-9999.0,'1111122,1111122,1111122' 
DISL,ioos:station:DISL:PPTA:1,2013-12-04T05:00:00Z,30.2791,-87.5561,0.0,1.05,191.6,-9999.0,'1111122,1111122,1111122' 
DISL,ioos:station:DISL:PPTA:1,2013-12-04T05:30:00Z,30.2791,-87.5561,0.0,0.56,188.3,-9999.0,'1111122,1111122,1111122' 
DISL,ioos:station:DISL:PPTA:1,2013-12-04T06:00:00Z,30.2791,-87.5561,0.0,1.05,189.6,-9999.0,'1111122,1111122,1111122' 
DISL,ioos:station:DISL:PPTA:1,2013-12-04T06:30:00Z,30.2791,-87.5561,0.0,1.18,189.2,-9999.0,'1111122,1111122,1111122' 
DISL,ioos:station:DISL:PPTA:1,2013-12-04T07:00:00Z,30.2791,-87.5561,0.0,1.33,189.7,-9999.0,'1111122,1111122,1111122' 
DISL,ioos:station:DISL:PPTA:1,2013-12-04T07:30:00Z,30.2791,-87.5561,0.0,1.19,192.8,-9999.0,'1111122,1111122,1111122' 
DISL,ioos:station:DISL:PPTA:1,2013-12-04T08:00:00Z,30.2791,-87.5561,0.0,0.68,198.9,-9999.0,'1111122,1111122,1111122' 
DISL,ioos:station:DISL:PPTA:1,2013-12-04T08:30:00Z,30.2791,-87.5561,0.0,1.55,190.7,-9999.0,'1111122,1111122,1111122' 
DISL,ioos:station:DISL:PPTA:1,2013-12-04T09:00:00Z,30.2791,-87.5561,0.0,2.28,181.4,-9999.0,'1111122,1111122,1111122' 
DISL,ioos:station:DISL:PPTA:1,2013-12-04T09:30:00Z,30.2791,-87.5561,0.0,2.6,187.7,-9999.0,'1111122,1111122,1111122' 
DISL,ioos:station:DISL:PPTA:1,2013-12-04T10:00:00Z,30.2791,-87.5561,0.0,2.32,188.1,-9999.0,'1111122,1111122,1111122' 
DISL,ioos:station:DISL:PPTA:1,2013-12-04T10:30:00Z,30.2791,-87.5561,0.0,1.59,190.5,-9999.0,'1111122,1111122,1111122' 
DISL,ioos:station:DISL:PPTA:1,2013-12-04T11:00:00Z,30.2791,-87.5561,0.0,1.91,185.6,-9999.0,'1111122,1111122,1111122' 
DISL,ioos:station:DISL:PPTA:1,2013-12-04T11:30:00Z,30.2791,-87.5561,0.0,1.23,170.6,-9999.0,'1111122,1111122,1111122' 
DISL,ioos:station:DISL:PPTA:1,2013-12-04T12:00:00Z,30.2791,-87.5561,0.0,0.78,179.5,-9999.0,'1111122,1111122,1111122' 
DISL,ioos:station:DISL:PPTA:1,2013-12-04T12:30:00Z,30.2791,-87.5561,0.0,2.2,188.6,-9999.0,'1111122,1111122,1111122' 
DISL,ioos:station:DISL:PPTA:1,2013-12-04T13:00:00Z,30.2791,-87.5561,0.0,1.45,191.3,-9999.0,'1111122,1111122,1111122' 
DISL,ioos:station:DISL:PPTA:1,2013-12-04T13:30:00Z,30.2791,-87.5561,0.0,1.49,162.2,-9999.0,'1111122,1111122,1111122' 
DISL,ioos:station:DISL:PPTA:1,2013-12-04T14:00:00Z,30.2791,-87.5561,0.0,0.42,148.2,-9999.0,'1111122,1111122,1111122' 
DISL,ioos:station:DISL:PPTA:1,2013-12-04T14:30:00Z,30.2791,-87.5561,0.0,1.42,144.8,-9999.0,'1111122,1111122,1111122' 
DISL,ioos:station:DISL:PPTA:1,2013-12-04T15:00:00Z,30.2791,-87.5561,0.0,0.79,164.6,-9999.0,'1111122,1111122,1111122' 
DISL,ioos:station:DISL:PPTA:1,2013-12-04T15:30:00Z,30.2791,-87.5561,0.0,1.98,139.1,-9999.0,'1111122,1111122,1111122' 
DISL,ioos:station:DISL:PPTA:1,2013-12-04T16:00:00Z,30.2791,-87.5561,0.0,4.59,172.6,-9999.0,'1111122,1111122,1111122' 
DISL,ioos:station:DISL:PPTA:1,2013-12-04T16:30:00Z,30.2791,-87.5561,0.0,2.07,190.9,-9999.0,'1111122,1111122,1111122' 
DISL,ioos:station:DISL:PPTA:1,2013-12-04T17:00:00Z,30.2791,-87.5561,0.0,1.32,239.5,-9999.0,'1111122,1111122,1111122' 
DISL,ioos:station:DISL:PPTA:1,2013-12-04T17:30:00Z,30.2791,-87.5561,0.0,0.94,180.0,-9999.0,'1111122,1111122,1111122' 
DISL,ioos:station:DISL:PPTA:1,2013-12-04T18:00:00Z,30.2791,-87.5561,0.0,1.4,237.6,-9999.0,'1111122,1111122,1111122' 
DISL,ioos:station:DISL:PPTA:1,2013-12-04T18:30:00Z,30.2791,-87.5561,0.0,0.78,221.9,-9999.0,'1111122,1111122,1111122' 
DISL,ioos:station:DISL:PPTA:1,2013-12-04T19:00:00Z,30.2791,-87.5561,0.0,1.0,187.4,-9999.0,'1111122,1111122,1111122' 
DISL,ioos:station:DISL:PPTA:1,2013-12-04T19:30:00Z,30.2791,-87.5561,0.0,1.66,184.3,-9999.0,'1111122,1111122,1111122' 
DISL,ioos:station:DISL:PPTA:1,2013-12-04T20:00:00Z,30.2791,-87.5561,0.0,0.61,174.4,-9999.0,'1111122,1111122,1111122' 
DISL,ioos:station:DISL:PPTA:1,2013-12-04T20:30:00Z,30.2791,-87.5561,0.0,0.47,167.9,-9999.0,'1111122,1111122,1111122' 
DISL,ioos:station:DISL:PPTA:1,2013-12-04T21:00:00Z,30.2791,-87.5561,0.0,0.94,158.5,-9999.0,'1111122,1111122,1111122' 
DISL,ioos:station:DISL:PPTA:1,2013-12-04T21:30:00Z,30.2791,-87.5561,0.0,1.9,155.2,-9999.0,'1111122,1111122,1111122' 
DISL,ioos:station:DISL:PPTA:1,2013-12-04T22:00:00Z,30.2791,-87.5561,0.0,1.82,151.8,-9999.0,'1111122,1111122,1111122' 
DISL,ioos:station:DISL:PPTA:1,2013-12-04T22:30:00Z,30.2791,-87.5561,0.0,2.8,158.2,-9999.0,'1111122,1111122,1111122' 
DISL,ioos:station:DISL:PPTA:1,2013-12-04T23:00:00Z,30.2791,-87.5561,0.0,2.27,160.2,-9999.0,'1111122,1111122,1111122' 
DISL,ioos:station:DISL:PPTA:1,2013-12-04T23:30:00Z,30.2791,-87.5561,0.0,2.02,167.2,-9999.0,'1111122,1111122,1111122' 
DISL,ioos:station:DISL:PPTA:1,2013-12-05T00:00:00Z,30.2791,-87.5561,0.0,2.47,156.8,-9999.0,'1111122,1111122,1111122' 
DISL,ioos:station:DISL:PPTA:1,2013-12-05T00:30:00Z,30.2791,-87.5561,0.0,4.24,168.9,-9999.0,'1111122,1111122,1111122' 
DISL,ioos:station:DISL:PPTA:1,2013-12-05T01:00:00Z,30.2791,-87.5561,0.0,3.12,164.9,-9999.0,'1111122,1111122,1111122' 
DISL,ioos:station:DISL:PPTA:1,2013-12-05T01:30:00Z,30.2791,-87.5561,0.0,2.07,173.7,-9999.0,'1111122,1111122,1111122' 
DISL,ioos:station:DISL:PPTA:1,2013-12-05T02:00:00Z,30.2791,-87.5561,0.0,1.42,202.3,-9999.0,'1111122,1111122,1111122' 
DISL,ioos:station:DISL:PPTA:1,2013-12-05T02:30:00Z,30.2791,-87.5561,0.0,0.81,223.8,-9999.0,'1111122,1111122,1111122' 
DISL,ioos:station:DISL:PPTA:1,2013-12-05T03:00:00Z,30.2791,-87.5561,0.0,1.48,202.9,-9999.0,'1111122,1111122,1111122' 
DISL,ioos:station:DISL:PPTA:1,2013-12-05T03:30:00Z,30.2791,-87.5561,0.0,0.86,204.0,-9999.0,'1111122,1111122,1111122' 
DISL,ioos:station:DISL:PPTA:1,2013-12-05T04:00:00Z,30.2791,-87.5561,0.0,0.43,223.5,-9999.0,'1111122,1111122,1111122' 
DISL,ioos:station:DISL:PPTA:1,2013-12-05T04:30:00Z,30.2791,-87.5561,0.0,1.53,197.3,-9999.0,'1111122,1111122,1111122' 